Weather Roundup
Issued by NWS Chicago, IL

Home | Current Version | Previous Version | Text Only | Print | Product List | Glossary Off
Versions: 1 2 3 4 5 6 7 8 9 10 11 12 13 14 15 16 17 18 19 20 21 22 23 24 25 26 27 28 29 30 31 32 33 34 35 36 37 38 39 40 41 42 43 44 45 46 47 48 49 50

000
NZUS59 KLOT 250212
HRRLOT

CHICAGO AREA WEATHER ROUNDUP
NATIONAL WEATHER SERVICE CHICAGO/ROMEOVILLE IL
900 PM CDT SUN MAY 24 2015

NOTE: "FAIR" INDICATES FEW OR NO CLOUDS BELOW 12,000 FEET WITH NO
SIGNIFICANT WEATHER AND/OR OBSTRUCTIONS TO VISIBILITY.

* THESE STATIONS ARE NOT UNDER NWS QUALITY CONTROL. THEY ALSO MAY NOT
  REPORT WEATHER SUCH AS PRECIPITATION OR FOG.

ILZ005-006-012>014-019>023-250300-
NORTHEAST ILLINOIS

CITY           SKY/WX    TMP DP  RH WIND       PRES   REMARKS
OHARE          MOCLDY    64  62  93 E9        29.92F
MIDWAY         MOCLDY    66  63  90 E5        29.93F
AURORA         CLOUDY    70  64  81 SE6       29.90F
LANSING*       PTCLDY    75  57  53 S12G21    29.95R
JOLIET*        MOCLDY    76  64  66 S7        29.91S
WAUKEGAN       MOCLDY    57  55  93 E7        29.92F
DUPAGE AIRPORT CLOUDY    67  64  90 SE6       29.91F
WHEELING       MOCLDY    61  59  93 SE3       29.93F FOG
KANKAKEE*      CLOUDY    77  62  59 SE12      29.95S
MORRIS*        CLOUDY    75  63  65 S12       29.90S
LEWIS AIRPORT* CLOUDY    71  63  76 S9        29.92S
NORTHERLY IS     N/A     58  56  93 N1          N/A
$$

WIZ051-052-058>065-066-070>072-250300-
SOUTHEAST WISCONSIN

CITY           SKY/WX    TMP DP  RH WIND       PRES   REMARKS
MILWAUKEE      LGT RAIN  55  51  86 SE6       29.94F
KENOSHA*       CLOUDY    57  54  89 E7        29.93F
RACINE*        LGT RAIN  55  51  86 SE9       29.95F
BURLINGTON     CLOUDY    56  55  94 CALM      29.92F
WAUKESHA       CLOUDY    54  52  94 E9        29.95F
WEST BEND      HVY RAIN  55  54  94 E5        29.96S
$$

INZ001>003-010>013-019-020-250300-
NORTHWEST INDIANA

CITY           SKY/WX    TMP DP  RH WIND       PRES   REMARKS
GARY*          MOCLDY    79  61  53 S9        29.95S HX  80
MICHIGAN CITY* NOT AVBL
RENSSELAER*    NOT AVBL
VALPARAISO     PTCLDY    77  59  53 S10       29.98S
$$

LMZ740>746-250300-
SOUTHERN LAKE MICHIGAN

STATION/POSITION TIME  SKY/WX   TEMP WIND        PRES    VSBY
                                AIR  DIR/SP/G
                 (UTC)          (F)  (DEG/KT/KT) (MB)    (MI)
HARRISON CRIB    0100            58   80/ 12/ 13   N/A
BURNHAM HARBOR   0200            58   CALM  /  2   N/A
CALUMET HARBOR   0106            61   40/  3/  4   N/A
BURNS HARBOR     0100            79  180/ 10/ 17 1014.6S
MICHIGAN CITY    0100            80  150/ 14/ 19   N/A
$$

ABBREVIATIONS USED IN REMARKS
   TC - TEMPERATURE IN CELSIUS
  WCI - WIND CHILL INDEX
   HX - HEAT INDEX
  VSB - VISIBILITY
$$


USA.gov is the U.S. government's official web portal to all federal, state and local government web resources and services.